Weather in Fabrichnoye

Russia / Sverdlovsk Oblast     58°05′32″N   63°45′50″E
temp.,
°C
wind,
m/s
gust,
m/s
humid.,
%
clouds,
%
prec.,
mm/h
press.,
hPa
HPBL,
m
19 september, sun
sun1923:00+2wnw5109399 0.0 1004576
02:00+2wnw5994100 0.2 1004925
05:00+2wnw51097100 0.7 1005823
08:00+2wnw61297100 0.3 1005868
11:00+3wnw61192100 0.6 1007902
14:00+8nw7125759 0.1 10071638
17:00+7nnw6115396 0.1 10091764
20:00+4nw6127375 0.0 1011978
20 september, mon
mon2023:00+3nw61176100 0.0 10131069
02:00+3nw61180100 0.0 1014808
05:00+3nw51082100 0.0 1016771
08:00+2nw51088100 0.1 1018752
11:00+4nnw5877100 0.3 1020959
14:00+5nnw5773100 0.4 10221147
17:00+5nnw5876100 0.6 10241004
20:00+3nnw498783 0.1 1025711
21 september, tue
tue2123:00+1nnw379561 0.2 1027255
02:00+2nnw378855 0.0 1027572
05:000nnw378276 0.0 1028423
08:000nw24855 0.0 1028146
11:00+5wnw235922 0.0 1027801
14:00+9w344882 0.0 10251264
17:00+9wsw3552100 0.0 1023963
20:00+5sw2366100 0.0 102254
22 september, wed
wed2223:00+3nw378041 0.0 1022133
02:000nw35915 0.0 102293
05:00−1nnw35945 0.0 102394
08:00+1nnw258635 0.0 1023146
11:00+5nnw3471100 0.0 1024412
14:00+8nnw346477 0.0 10241097
17:00+8nnw3464100 0.1 1024782
20:00+6nnw2379100 0.1 102563
23 september, thu
thu2323:00+5n238499 0.1 102568
02:00+3n229496 0.0 102635
05:00+3ene239397 0.0 1027159
08:00+3ene1395100 0.2 1028436
11:00+4ene138976 0.4 1030440
14:00+6ene2267100 0.1 1030818
17:00+7e226399 0.2 1030912
20:00+4e357499 0.0 1031149